Change the Weather History Date:

Thursday, December 13, 2012

  Actual Average Record
Temperature  
Mean Temperature 54 °F 38 °F  
Max Temperature 70 °F 50 °F 77 °F (2005)
Min Temperature 37 °F 27 °F 8 °F (1958)
Degree Days  
Heating Degree Days 11 27  
Month to date heating degree days 219 324  
Since 1 July heating degree days 756 1041  
Cooling Degree Days 0 0  
Month to date cooling degree days 0 0  
Year to date cooling degree days 2524 1839  
Growing Degree Days 3 (Base 50)    
Moisture  
Dew Point 13 °F    
Average Humidity 23    
Maximum Humidity 36    
Minimum Humidity 9    
Precipitation  
Precipitation 0.00 in 0.02 in 0.61 in (1987)
Month to date precipitation T 0.23  
Year to date precipitation 15.62 21.18  
Snow  
Snow 0.00 in - - ()
Month to date snowfall T  
Since 1 July snowfall T  
Snow Depth 0.00 in    
Sea Level Pressure  
Sea Level Pressure 29.98 in    
Wind  
Wind Speed 10 mph (SW)    
Max Wind Speed 18 mph    
Max Gust Speed 24 mph    
Visibility 10 miles    
Events      
T = Trace of Precipitation, MM = Missing Value Source: NWS Daily Summary

Daily Weather History Graph

Daily Weather History Graph

Search for Another Location

Airport or City:

Trip Planner

Search our weather history database for the weather conditions in past years. The results will help you decide how hot, cold, wet, or windy it might be!

Date:

Astronomy

Dec. 13, 2012 Rise Set
Actual Time 7:47 AM CST 5:33 PM CST
Civil Twilight 7:18 AM CST 6:01 PM CST
Nautical Twilight 6:46 AM CST 6:33 PM CST
Astronomical Twilight 6:15 AM CST 7:04 PM CST
Moon 7:58 AM CST (12/13) 6:16 PM CST (12/13)
Length of Visible Light 10h 42m
Length of Day
9h 46m
New Moon, 0% of the Moon is Illuminated
Dec 13
New Moon
Dec 19
First Quarter
Dec 28
Full
Jan 4
Last Quarter
Jan 11
New

Hourly Weather History & Observations

Time (CST) Temp. Windchill Dew Point Humidity Pressure Visibility Wind Dir Wind Speed Gust Speed Precip Events Conditions
12:51 AM 45.0 °F 38.5 °F 9.0 °F 23% 29.99 in 10.0 mi SW 13.8 mph 23.0 mph N/A   Clear
1:51 AM 45.0 °F 39.7 °F 9.0 °F 23% 29.97 in 10.0 mi SW 10.4 mph 18.4 mph N/A   Clear
2:51 AM 46.9 °F - 9.0 °F 21% 29.96 in 10.0 mi SW 12.7 mph 21.9 mph N/A   Clear
3:51 AM 44.1 °F 40.8 °F 9.0 °F 24% 29.97 in 10.0 mi WSW 5.8 mph - N/A   Clear
5:51 AM 37.9 °F 31.5 °F 9.0 °F 30% 29.99 in 10.0 mi WSW 9.2 mph - N/A   Clear
6:51 AM 42.1 °F 37.7 °F 10.9 °F 28% 30.00 in 10.0 mi SSW 6.9 mph - N/A   Clear
7:51 AM 39.0 °F 32.8 °F 10.0 °F 30% 30.02 in 10.0 mi SSW 9.2 mph - N/A   Clear
8:51 AM 43.0 °F 38.2 °F 10.9 °F 27% 30.02 in 10.0 mi SSW 8.1 mph - N/A   Clear
9:51 AM 50.0 °F - 10.9 °F 21% 30.04 in 10.0 mi WSW 10.4 mph - N/A   Clear
10:51 AM 53.1 °F - 10.9 °F 19% 30.06 in 10.0 mi West 10.4 mph - N/A   Clear
11:51 AM 57.9 °F - 10.9 °F 16% 30.04 in 10.0 mi WSW 9.2 mph - N/A   Clear
12:51 PM 64.0 °F - 10.0 °F 12% 29.98 in 10.0 mi West 6.9 mph - N/A   Clear
1:51 PM 68.0 °F - 10.0 °F 11% 29.94 in 10.0 mi WSW 10.4 mph - N/A   Clear
2:51 PM 69.1 °F - 9.0 °F 10% 29.93 in 10.0 mi SW 11.5 mph 18.4 mph N/A   Clear
3:51 PM 68.0 °F - 10.0 °F 11% 29.93 in 10.0 mi South 9.2 mph - N/A   Clear
6:51 PM 59.0 °F - 14.0 °F 17% 29.94 in 10.0 mi South 12.7 mph 20.7 mph N/A   Clear
7:51 PM 55.0 °F - 15.1 °F 21% 29.98 in 10.0 mi South 13.8 mph 21.9 mph N/A   Clear
8:51 PM 55.0 °F - 17.1 °F 23% 29.98 in 10.0 mi South 13.8 mph 24.2 mph N/A   Clear
10:51 PM 50.0 °F - 25.0 °F 38% 29.97 in 10.0 mi South 12.7 mph - N/A   Clear
11:51 PM 50.0 °F - 33.1 °F 52% 29.95 in 10.0 mi South 12.7 mph 23.0 mph N/A   Clear